Vertical_Velocity
-7 -8 -3 2 2 2 2 6 10 9 8 8 8 4 1 1 2 4 1 1 3 5 1 4 3 -6 14 7 5 3 -1 -3 -2 -3 -1 -2 -3 -4 -0 1 -5 -6 -2 -10 2 -2 -5
-5 -1 -1 -6 -3 2 9 2 9 -2 -1 2 9 2 -0 -1 -2 2 1 1 1 -4 -6 -3 4 22 8 4 5 -1 -1 -3 -0 -3 -1 -0 -3 -1 -1 -1 -8 -0 -6 -3 3 1 -7
1 -4 -3 -3 -1 5 0 16 -4 7 -1 -1 3 8 4 2 3 -3 6 2 1 -1 -4 -3 -4 -0 5 13 9 7 -0 0 -4 -3 -3 -2 -1 -3 1 -6 -3 -2 -0 -4 -4 -6 1
-1 -6 -3 -1 -1 3 4 3 27 34 26 -9 -12 -9 1 3 6 5 8 1 0 -1 -7 -6 -5 0 3 11 12 3 -0 -4 -4 -1 -2 -4 1 -4 -3 -7 -4 -2 -6 6 -19 -2 -5
-3 -8 -7 0 1 1 7 -4 13 28 15 12 -10 -4 1 6 0 4 7 -8 -5 5 4 -10 -7 1 -5 6 11 2 -2 -3 -0 -3 -2 0 -2 -3 -5 -4 -2 -8 6 2 -4 -1 -4
-5 -6 -5 -5 -7 -5 -0 -1 13 29 22 8 14 -6 -5 -10 -4 -1 -3 -8 -5 -0 -2 -1 -1 8 -4 10 10 1 -1 -2 -4 -1 0 -4 -1 -4 -3 -1 -2 -0 -1 1 -0 -8 -3
-4 -8 -10 -7 -8 3 -4 -4 1 3 4 10 5 3 0 3 -3 -10 -18 -6 -21 -3 8 -2 11 10 4 1 2 -1 -2 -3 -1 -1 -2 2 -1 -4 -3 -4 -3 -3 -2 2 -2 -8 -3
-5 -11 -10 -9 -6 1 0 -4 -11 -5 -3 -8 -11 -4 -9 -7 2 4 0 -5 -6 28 5 -10 -0 9 7 0 -2 -2 -3 -1 -2 1 1 -5 -2 -4 -2 -1 -3 -3 -1 -1 -3 0 -1
-2 -10 -7 -13 -4 -6 -2 -1 -0 -1 -2 -7 -2 -0 0 -1 3 2 -2 7 14 2 -6 5 -3 18 3 1 -0 -3 2 1 2 -0 -3 -0 -1 -1 -3 -3 -4 -2 -2 -1 1 -2 -4
-5 -11 -7 -10 -5 -13 -10 -4 1 1 -1 2 -1 -3 -4 -2 -4 -1 1 -7 -2 2 4 13 4 17 1 1 1 5 1 1 -2 -3 2 -0 -1 -5 -2 -1 1 -0 -2 -2 -2 -4 -2
-6 -6 -4 -7 -8 -1 -13 -18 -6 -6 -3 2 -23 -17 -10 3 -0 0 -5 6 4 0 9 22 12 -0 -1 2 4 3 -2 -1 -1 1 1 -3 -3 -2 -1 -3 -3 -3 -1 0 -0 -1 -5
-6 -2 -5 -5 -1 -3 -10 -11 -8 -4 -15 -13 -17 -8 -2 -5 -1 2 2 -5 11 -4 -6 1 2 0 2 4 0 0 1 1 -1 0 -1 -3 -3 -1 -2 -2 -0 -1 -2 1 1 0 -2
-0 3 -0 -1 -0 -5 2 -8 -13 -6 -4 -10 -9 -11 -8 -1 3 0 0 -6 -2 -2 -5 2 1 -1 -3 1 5 0 -0 2 -4 -1 -0 -0 -0 -1 1 2 -3 -1 -1 1 -0 -1 5
4 -2 -1 -6 -2 4 0 2 -3 -6 -10 -6 -2 -9 -9 -5 -3 -6 -2 -2 -0 -3 2 -2 -0 -2 1 -1 -1 -1 -1 -1 -1 -3 -2 0 -2 -1 -2 -2 -1 0 2 2 1 15 -5
-6 -5 2 -3 -1 1 1 2 -2 -4 -1 -5 -5 -2 -2 1 2 3 -1 2 -7 1 0 1 -6 3 -1 -3 -2 0 -2 -2 -3 2 0 -1 -3 0 -2 -2 -2 3 7 -1 5 6 7
-1 -1 -7 6 -0 2 7 1 1 2 0 -3 5 0 2 1 -4 -7 8 -9 -8 4 0 1 1 -4 -3 -2 -2 -0 -2 -2 1 0 2 -2 -1 -1 -3 -0 2 3 3 -4 -0 -3 4
2 1 -3 0 5 -1 -1 7 4 1 -1 -2 -10 9 2 4 -2 2 1 -7 -4 1 5 0 -1 -1 -1 -0 -3 -4 -4 -1 0 2 2 -1 1 -0 -2 0 4 5 5 -1 2 2 -1
3 0 -3 -1 -1 5 1 1 2 0 -0 1 -4 5 3 5 2 5 -2 -7 -7 -6 -3 -4 0 1 -0 -0 -2 -1 -2 -1 -3 2 -1 2 1 1 0 1 1 4 3 2 3 1 1
2 2 2 -2 1 0 4 4 1 4 3 -2 -1 0 -0 0 3 1 -3 -3 -6 -5 -2 -4 3 -0 -3 -2 2 -1 0 -2 0 0 -2 -2 -1 1 5 4 -2 7 -5 3 -3 -2 -2
5 3 3 1 2 3 4 5 3 4 2 3 -1 2 2 -0 -1 -0 -1 -3 -2 -7 -1 -3 1 -1 3 2 -0 -1 -0 -1 0 2 -0 0 -0 -0 2 1 2 8 4 0 2 2 1
2 3 -3 -1 2 4 6 -1 -2 2 0 -0 1 2 -0 -0 -2 -3 -3 -8 1 -5 -5 -7 -1 -0 -4 6 2 -2 -0 -1 -2 0 -0 -0 -1 0 2 -0 -0 -2 1 -3 2 2 5
-2 4 4 0 1 -1 3 -1 3 3 3 -1 4 -3 -1 -5 -4 -6 -6 -8 -4 -5 -2 -8 -7 -2 -4 -4 0 -1 -1 -3 -0 -2 -2 -1 -2 -2 -2 3 2 -5 0 1 1 -3 1
-0 1 2 2 2 -2 -1 2 5 2 1 5 6 1 0 -2 -2 -11 -10 -1 -3 -4 -6 -5 -6 0 -5 -3 -0 -2 1 -4 -2 -1 -2 -1 -1 -1 -1 -2 -1 4 -2 -4 -5 -2 -2
-3 -1 3 -3 4 -1 -1 4 -2 -1 4 5 0 0 -2 -1 -4 -1 -6 -9 -8 -3 -3 -3 -6 -4 -4 -5 -3 -1 1 -1 -1 -2 -0 -1 -1 1 -0 2 -1 -3 -1 1 -1 -2 -1
-2 0 2 3 -7 4 0 2 0 1 5 6 7 0 0 0 -1 -3 -2 -0 -3 -4 -5 -4 -4 -4 -4 -7 -7 -4 -3 -3 -3 -2 -1 -2 -2 -2 -2 -0 2 3 -0 -1 -1 -5 -4
-2 -4 4 3 2 -8 -1 2 1 -2 0 -0 2 10 1 1 3 -1 -3 -2 -1 1 -1 -0 -2 -2 -2 -2 -2 -6 -7 -5 -2 -3 -5 -4 -3 -5 -6 -5 -2 -1 -1 -2 1 6 3
-1 -2 -4 4 2 1 -3 -9 2 -4 -6 -3 0 9 9 2 -1 2 -2 1 1 -1 -1 1 -0 -2 -2 -2 -1 -1 -4 -5 -5 -5 -5 -3 -2 -3 -3 -4 -1 -1 -2 -1 -2 -1 -0
2 -2 -3 1 -0 2 -1 -2 -4 1 0 -5 -7 -5 9 12 6 -2 2 0 4 2 1 3 0 2 -0 -4 -5 -5 -2 -2 -3 -2 -2 -1 -1 -1 -1 -1 -2 -0 -1 -3 -1 -2 -4
4 1 -3 -0 2 5 3 0 -1 -3 -0 6 -5 -4 -7 2 6 2 -0 -0 2 0 2 2 2 -0 2 3 -0 -1 -2 -1 -2 -3 -5 -4 -7 -6 -4 -2 -2 -3 -1 -2 -3 -1 -1
Height
5725 5709 5692 5675 5658 5643 5631 5624 5616 5609 5604 5599 5596 5593 5592 5593 5594 5597 5600 5604 5609 5613 5618 5625 5632 5636 5640 5645 5648 5652 5657 5661 5665 5668 5671 5673 5675 5676 5677 5677 5676 5677 5677 5677 5677 5678 5678
5712 5694 5678 5659 5640 5623 5612 5604 5597 5592 5587 5584 5581 5579 5579 5582 5583 5585 5589 5592 5598 5602 5605 5612 5621 5627 5631 5635 5638 5642 5646 5651 5655 5660 5663 5665 5666 5668 5668 5666 5666 5665 5665 5666 5665 5665 5667
5701 5683 5666 5644 5621 5605 5595 5587 5581 5574 5568 5566 5566 5567 5569 5572 5574 5576 5580 5583 5587 5591 5595 5602 5610 5616 5621 5626 5630 5633 5637 5642 5646 5651 5654 5657 5657 5658 5659 5658 5657 5655 5656 5654 5649 5652 5657
5693 5675 5655 5632 5606 5585 5572 5570 5562 5557 5551 5550 5550 5552 5555 5557 5561 5565 5568 5575 5577 5580 5583 5590 5597 5606 5610 5617 5620 5625 5630 5635 5639 5643 5647 5648 5649 5649 5650 5649 5647 5646 5645 5643 5636 5641 5641
5685 5667 5645 5620 5593 5567 5551 5546 5542 5541 5536 5534 5533 5536 5538 5541 5547 5552 5557 5561 5569 5572 5574 5579 5587 5596 5602 5609 5614 5618 5623 5629 5633 5636 5639 5640 5641 5641 5641 5639 5638 5635 5635 5631 5628 5628 5629
5680 5659 5637 5611 5582 5551 5536 5524 5526 5524 5520 5520 5518 5519 5523 5527 5532 5536 5542 5547 5556 5561 5567 5572 5580 5587 5596 5603 5607 5611 5617 5623 5628 5631 5633 5634 5633 5633 5632 5630 5628 5626 5624 5622 5621 5619 5619
5674 5653 5631 5605 5574 5546 5531 5519 5513 5510 5508 5508 5507 5506 5509 5511 5515 5519 5526 5532 5546 5551 5555 5568 5577 5582 5589 5595 5602 5608 5613 5619 5623 5625 5626 5627 5626 5625 5623 5621 5619 5619 5618 5618 5617 5614 5614
5671 5651 5630 5606 5574 5547 5532 5521 5515 5509 5507 5504 5500 5497 5497 5497 5496 5496 5504 5515 5533 5541 5549 5563 5572 5576 5584 5592 5598 5605 5610 5615 5618 5620 5620 5620 5620 5618 5617 5616 5616 5616 5616 5616 5614 5612 5612
5670 5651 5631 5609 5580 5555 5534 5525 5518 5514 5510 5504 5499 5498 5496 5493 5492 5493 5500 5516 5530 5541 5550 5560 5567 5576 5584 5591 5597 5603 5608 5611 5614 5615 5615 5616 5616 5615 5615 5615 5615 5615 5615 5614 5613 5613 5611
5673 5654 5634 5615 5591 5568 5543 5527 5520 5515 5510 5506 5502 5500 5500 5502 5505 5509 5517 5525 5535 5545 5555 5565 5570 5579 5585 5590 5597 5602 5606 5610 5612 5613 5613 5614 5614 5614 5614 5614 5614 5614 5615 5614 5612 5611 5610
5679 5658 5641 5623 5605 5586 5563 5545 5529 5520 5514 5510 5512 5512 5514 5516 5522 5526 5531 5536 5544 5552 5558 5569 5575 5581 5587 5593 5599 5601 5605 5608 5610 5611 5613 5614 5613 5613 5613 5614 5615 5615 5614 5612 5611 5609 5606
5687 5665 5648 5633 5620 5603 5587 5569 5556 5544 5540 5537 5537 5533 5532 5535 5537 5540 5544 5549 5555 5561 5565 5572 5578 5584 5590 5594 5598 5601 5605 5608 5611 5611 5612 5612 5612 5613 5614 5615 5615 5614 5613 5611 5610 5607 5604
5691 5677 5658 5644 5631 5619 5605 5591 5579 5572 5565 5561 5559 5554 5551 5551 5552 5554 5557 5560 5564 5567 5572 5578 5583 5588 5593 5597 5600 5603 5607 5610 5612 5612 5612 5613 5613 5614 5615 5615 5615 5614 5613 5610 5609 5606 5601
5697 5684 5667 5653 5641 5632 5620 5609 5600 5592 5588 5582 5581 5575 5570 5568 5565 5565 5566 5569 5573 5574 5580 5584 5588 5593 5597 5601 5604 5606 5609 5611 5613 5613 5614 5614 5616 5616 5616 5616 5616 5614 5613 5610 5608 5607 5604
5705 5691 5679 5663 5652 5640 5634 5624 5617 5610 5604 5598 5592 5589 5586 5583 5582 5580 5580 5581 5581 5584 5587 5590 5594 5599 5603 5605 5608 5609 5611 5614 5615 5615 5616 5616 5617 5617 5617 5617 5617 5614 5613 5612 5609 5608 5607
5711 5700 5689 5674 5662 5651 5641 5635 5627 5621 5617 5611 5607 5602 5598 5597 5596 5594 5594 5588 5587 5590 5595 5598 5602 5605 5608 5609 5611 5614 5615 5616 5617 5617 5618 5617 5618 5618 5618 5617 5617 5615 5616 5614 5610 5611 5610
5715 5706 5696 5685 5673 5663 5651 5643 5638 5630 5625 5619 5615 5613 5608 5606 5604 5603 5600 5595 5597 5599 5602 5605 5608 5611 5613 5614 5616 5618 5619 5620 5620 5619 5619 5620 5621 5622 5620 5620 5619 5618 5616 5615 5615 5614 5614
5720 5711 5703 5694 5683 5674 5663 5652 5641 5635 5629 5625 5621 5619 5615 5611 5611 5610 5608 5607 5608 5609 5610 5612 5615 5617 5618 5621 5622 5622 5621 5623 5623 5622 5623 5624 5624 5623 5622 5620 5619 5616 5618 5619 5620 5620 5621
5726 5716 5708 5700 5691 5682 5672 5662 5651 5641 5634 5627 5624 5622 5619 5616 5614 5613 5613 5614 5616 5617 5617 5619 5621 5623 5624 5626 5627 5626 5626 5628 5627 5626 5628 5628 5628 5627 5627 5626 5623 5623 5622 5624 5625 5626 5626
5731 5722 5714 5704 5696 5686 5678 5669 5661 5650 5642 5636 5630 5627 5622 5618 5615 5615 5616 5618 5622 5623 5624 5625 5627 5628 5629 5630 5630 5630 5631 5632 5632 5632 5632 5633 5632 5633 5632 5631 5629 5629 5629 5630 5630 5631 5631
5736 5726 5720 5711 5704 5696 5687 5680 5669 5660 5650 5645 5638 5634 5627 5623 5619 5616 5619 5622 5628 5631 5632 5632 5633 5633 5633 5634 5635 5635 5635 5637 5637 5637 5637 5637 5637 5637 5636 5636 5635 5634 5635 5635 5637 5636 5639
5740 5731 5723 5717 5709 5699 5692 5685 5678 5671 5662 5654 5648 5643 5636 5631 5627 5624 5625 5630 5634 5636 5638 5639 5639 5639 5638 5638 5640 5641 5641 5641 5641 5643 5642 5642 5642 5642 5641 5641 5642 5641 5640 5640 5643 5642 5644
5741 5736 5728 5719 5713 5708 5699 5691 5685 5679 5672 5664 5657 5651 5648 5641 5639 5635 5636 5639 5639 5641 5643 5645 5646 5647 5646 5645 5645 5646 5646 5646 5646 5646 5646 5646 5646 5646 5646 5646 5646 5648 5647 5647 5647 5648 5648
5742 5736 5730 5724 5715 5710 5703 5694 5688 5685 5681 5674 5667 5661 5656 5653 5648 5646 5643 5643 5644 5645 5647 5649 5650 5651 5653 5652 5651 5651 5651 5651 5651 5650 5649 5649 5648 5649 5649 5649 5650 5650 5651 5650 5650 5650 5650
5740 5736 5731 5726 5720 5712 5706 5702 5693 5688 5687 5681 5674 5668 5664 5661 5658 5654 5651 5650 5650 5651 5651 5651 5652 5654 5654 5655 5655 5655 5654 5654 5653 5653 5652 5652 5651 5650 5650 5651 5651 5650 5650 5651 5652 5652 5651
5738 5734 5731 5726 5721 5715 5709 5703 5697 5688 5686 5685 5680 5676 5670 5667 5666 5663 5661 5658 5656 5655 5655 5656 5655 5654 5655 5655 5656 5656 5655 5655 5655 5654 5652 5651 5651 5652 5651 5650 5651 5651 5650 5649 5648 5650 5649
5735 5731 5729 5724 5720 5717 5713 5710 5702 5695 5687 5683 5682 5678 5675 5671 5670 5669 5667 5665 5663 5661 5660 5659 5659 5658 5657 5656 5655 5655 5655 5654 5653 5652 5651 5650 5649 5649 5648 5648 5648 5648 5649 5648 5648 5651 5648
5729 5727 5725 5721 5718 5714 5710 5709 5706 5700 5692 5688 5684 5681 5681 5675 5672 5672 5672 5669 5668 5667 5665 5664 5663 5662 5660 5659 5658 5657 5655 5654 5653 5652 5651 5650 5648 5648 5648 5647 5648 5647 5648 5647 5648 5648 5647
5723 5722 5720 5717 5711 5709 5704 5705 5706 5702 5696 5686 5683 5681 5679 5680 5677 5673 5672 5673 5672 5670 5668 5668 5667 5665 5663 5661 5661 5659 5658 5657 5655 5654 5653 5652 5652 5650 5649 5648 5647 5648 5648 5647 5647 5647 5646